• In United Kingdom
  • List of Countries
  • For 7 days
  • Water Temperature
  • Satellite Maps
  • Weather Map
  • Weather Widgets
  • user-avatar
    Login

    Hourly Weather Tetuan

    Today, 25 November, Saturday

    Time Temperature Precipitation Wind Pressure Humidity
    00:00 +19°C° 0 mm 1 mps 759 mmHg 41%
    01:00 +19°C° 0 mm 1 mps 759 mmHg 40%
    02:00 +19°C° 0 mm 1 mps 758 mmHg 39%
    03:00 +19°C° 0 mm 1 mps 758 mmHg 38%
    04:00 +19°C° 0 mm 1 mps 758 mmHg 37%
    05:00 +18°C° 0 mm 1 mps 758 mmHg 36%
    06:00 +18°C° 0 mm 1 mps 758 mmHg 34%
    07:00 +20°C° 0 mm 1 mps 759 mmHg 34%
    08:00 +21°C° 0 mm 1 mps 759 mmHg 33%
    09:00 +23°C° 0 mm 1 mps 759 mmHg 32%
    10:00 +24°C° 0 mm 1 mps 759 mmHg 30%
    11:00 +26°C° 0 mm 1 mps 759 mmHg 27%
    12:00 +28°C° 0 mm 1 mps 759 mmHg 24%
    13:00 +27°C° 0 mm 1 mps 759 mmHg 25%
    14:00 +27°C° 0 mm 1 mps 758 mmHg 26%
    15:00 +27°C° 0 mm 1 mps 758 mmHg 27%
    16:00 +25°C° 0 mm 1 mps 758 mmHg 31%
    17:00 +23°C° 0 mm 1 mps 759 mmHg 35%
    18:00 +21°C° 0 mm 1 mps 759 mmHg 39%
    19:00 +21°C° 0 mm 1 mps 759 mmHg 39%
    20:00 +21°C° 0 mm 1 mps 760 mmHg 38%
    21:00 +21°C° 0 mm 1 mps 760 mmHg 37%
    22:00 +21°C° 0 mm 1 mps 760 mmHg 36%
    23:00 +21°C° 0 mm 1 mps 760 mmHg 35%

    Tomorrow, 26 November, Sunday

    Time Temperature Precipitation Wind Pressure Humidity
    00:00 +20°C° 0 mm 1 mps 760 mmHg 34%
    01:00 +20°C° 0 mm 1 mps 760 mmHg 33%
    02:00 +20°C° 0 mm 1 mps 760 mmHg 33%
    03:00 +20°C° 0 mm 1 mps 760 mmHg 32%
    04:00 +20°C° 0 mm 1 mps 760 mmHg 32%
    05:00 +20°C° 0 mm 1 mps 760 mmHg 31%
    06:00 +19°C° 0 mm 1 mps 760 mmHg 31%
    07:00 +19°C° 0 mm 2 mps 761 mmHg 32%
    08:00 +21°C° 0 mm 2 mps 761 mmHg 33%
    09:00 +23°C° 0 mm 2 mps 762 mmHg 33%
    10:00 +24°C° 0 mm 2 mps 762 mmHg 31%
    11:00 +26°C° 0 mm 3 mps 762 mmHg 29%
    12:00 +27°C° 0 mm 3 mps 762 mmHg 27%
    13:00 +27°C° 0 mm 4 mps 762 mmHg 30%
    14:00 +26°C° 0 mm 4 mps 762 mmHg 34%
    15:00 +26°C° 0 mm 4 mps 762 mmHg 37%
    16:00 +23°C° 0 mm 4 mps 762 mmHg 46%
    17:00 +21°C° 0 mm 4 mps 762 mmHg 55%
    18:00 +19°C° 0 mm 4 mps 762 mmHg 63%
    19:00 +19°C° 0 mm 4 mps 762 mmHg 65%
    20:00 +18°C° 0 mm 4 mps 763 mmHg 67%
    21:00 +18°C° 0 mm 4 mps 763 mmHg 68%
    22:00 +18°C° 0 mm 4 mps 763 mmHg 68%
    23:00 +18°C° 0 mm 4 mps 762 mmHg 69%

    Day after tomorrow, 27 November, Monday

    Time Temperature Precipitation Wind Pressure Humidity
    00:00 +18°C° 0 mm 4 mps 762 mmHg 69%
    01:00 +16°C° 0 mm 5 mps 762 mmHg 72%
    02:00 +16°C° 0 mm 5 mps 762 mmHg 76%
    03:00 +16°C° 0 mm 5 mps 762 mmHg 79%
    04:00 +16°C° 0 mm 5 mps 762 mmHg 81%
    05:00 +16°C° 0 mm 5 mps 762 mmHg 83%
    06:00 +16°C° 0 mm 5 mps 761 mmHg 85%
    07:00 +16°C° 0 mm 5 mps 762 mmHg 83%
    08:00 +17°C° 0 mm 5 mps 762 mmHg 80%
    09:00 +19°C° 0 mm 5 mps 762 mmHg 78%
    10:00 +20°C° 0 mm 5 mps 762 mmHg 72%
    11:00 +21°C° 0 mm 5 mps 762 mmHg 65%
    12:00 +22°C° 0 mm 5 mps 762 mmHg 59%
    13:00 +22°C° 0 mm 4 mps 762 mmHg 60%
    14:00 +22°C° 0 mm 4 mps 761 mmHg 60%
    15:00 +22°C° 0 mm 4 mps 761 mmHg 60%
    16:00 +21°C° 0.1 mm 4 mps 761 mmHg 67%
    17:00 +20°C° 0.1 mm 4 mps 761 mmHg 73%
    18:00 +19°C° 0.1 mm 3 mps 761 mmHg 79%
    19:00 +19°C° 0.1 mm 3 mps 761 mmHg 80%
    20:00 +18°C° 0.1 mm 3 mps 761 mmHg 81%
    21:00 +18°C° 0.1 mm 3 mps 761 mmHg 81%
    22:00 +18°C° 0 mm 3 mps 761 mmHg 80%
    23:00 +18°C° 0 mm 3 mps 761 mmHg 78%

    28 November, Tuesday

    Time Temperature Precipitation Wind Pressure Humidity
    00:00 +18°C° 0 mm 3 mps 760 mmHg 77%
    01:00 +18°C° 0 mm 3 mps 760 mmHg 77%
    02:00 +17°C° 0 mm 3 mps 760 mmHg 76%
    03:00 +17°C° 0 mm 3 mps 759 mmHg 76%
    04:00 +17°C° 0 mm 3 mps 759 mmHg 76%
    05:00 +17°C° 0 mm 3 mps 759 mmHg 76%
    06:00 +17°C° 0 mm 3 mps 759 mmHg 75%
    07:00 +18°C° 0 mm 3 mps 759 mmHg 70%
    08:00 +19°C° 0 mm 3 mps 759 mmHg 65%
    09:00 +20°C° 0 mm 3 mps 759 mmHg 61%
    10:00 +21°C° 0 mm 3 mps 758 mmHg 54%
    11:00 +22°C° 0 mm 3 mps 758 mmHg 47%
    12:00 +25°C° 0 mm 3 mps 757 mmHg 40%
    13:00 +25°C° 0 mm 3 mps 757 mmHg 41%
    14:00 +25°C° 0 mm 3 mps 756 mmHg 41%
    15:00 +24°C° 0 mm 2 mps 755 mmHg 42%
    16:00 +23°C° 0 mm 2 mps 755 mmHg 45%
    17:00 +21°C° 0 mm 2 mps 755 mmHg 47%
    18:00 +19°C° 0 mm 2 mps 755 mmHg 49%
    19:00 +19°C° 0.1 mm 2 mps 755 mmHg 47%
    20:00 +19°C° 0.1 mm 2 mps 755 mmHg 45%
    21:00 +19°C° 0.1 mm 2 mps 755 mmHg 42%
    22:00 +18°C° 0.4 mm 2 mps 755 mmHg 44%
    23:00 +18°C° 0.4 mm 2 mps 754 mmHg 46%

    29 November, Wednesday

    Time Temperature Precipitation Wind Pressure Humidity
    00:00 +18°C° 0.4 mm 2 mps 754 mmHg 48%
    01:00 +18°C° 0.7 mm 2 mps 753 mmHg 53%
    02:00 +18°C° 0.7 mm 3 mps 753 mmHg 57%
    03:00 +17°C° 0.7 mm 3 mps 752 mmHg 62%
    04:00 +17°C° 1.3 mm 3 mps 752 mmHg 67%
    05:00 +17°C° 1.3 mm 4 mps 752 mmHg 73%
    06:00 +16°C° 1.3 mm 5 mps 752 mmHg 79%
    07:00 +16°C° 1.6 mm 5 mps 752 mmHg 82%
    08:00 +17°C° 1.6 mm 5 mps 752 mmHg 86%
    09:00 +17°C° 1.6 mm 5 mps 752 mmHg 89%
    10:00 +17°C° 1.1 mm 6 mps 752 mmHg 88%
    11:00 +19°C° 1.1 mm 6 mps 752 mmHg 86%
    12:00 +18°C° 1.1 mm 7 mps 752 mmHg 85%
    13:00 +20°C° 0.6 mm 7 mps 751 mmHg 84%
    14:00 +20°C° 0.6 mm 7 mps 751 mmHg 83%
    15:00 +20°C° 0.6 mm 7 mps 750 mmHg 82%
    16:00 +19°C° 0.4 mm 6 mps 751 mmHg 86%
    17:00 +19°C° 0.4 mm 6 mps 751 mmHg 89%
    18:00 +17°C° 0.4 mm 5 mps 751 mmHg 92%
    19:00 +17°C° 0.3 mm 5 mps 751 mmHg 92%
    20:00 +18°C° 0.3 mm 4 mps 752 mmHg 93%
    21:00 +18°C° 0.3 mm 4 mps 752 mmHg 93%
    22:00 +17°C° 0.2 mm 4 mps 752 mmHg 93%
    23:00 +17°C° 0.2 mm 4 mps 752 mmHg 93%

    30 November, Thursday

    Time Temperature Precipitation Wind Pressure Humidity
    00:00 +17°C° 0.2 mm 4 mps 752 mmHg 93%
    01:00 +17°C° 0.1 mm 4 mps 752 mmHg 94%
    02:00 +17°C° 0.1 mm 4 mps 752 mmHg 94%
    03:00 +17°C° 0.1 mm 3 mps 752 mmHg 94%
    04:00 +17°C° 0.2 mm 3 mps 752 mmHg 93%
    05:00 +17°C° 0.2 mm 3 mps 752 mmHg 93%
    06:00 +16°C° 0.2 mm 3 mps 752 mmHg 92%
    07:00 +17°C° 0.1 mm 3 mps 753 mmHg 89%
    08:00 +17°C° 0.1 mm 3 mps 754 mmHg 87%
    09:00 +18°C° 0.1 mm 3 mps 754 mmHg 84%
    10:00 +18°C° 0 mm 3 mps 754 mmHg 78%
    11:00 +19°C° 0 mm 3 mps 755 mmHg 73%
    12:00 +19°C° 0 mm 3 mps 755 mmHg 68%
    13:00 +19°C° 0.1 mm 3 mps 755 mmHg 64%
    14:00 +19°C° 0.1 mm 3 mps 755 mmHg 60%
    15:00 +19°C° 0.1 mm 3 mps 755 mmHg 56%
    16:00 +17°C° 0 mm 3 mps 755 mmHg 60%
    17:00 +16°C° 0 mm 2 mps 756 mmHg 63%
    18:00 +14°C° 0 mm 2 mps 757 mmHg 66%
    19:00 +14°C° 0.1 mm 2 mps 757 mmHg 68%
    20:00 +13°C° 0.1 mm 2 mps 758 mmHg 70%
    21:00 +13°C° 0.1 mm 2 mps 758 mmHg 72%
    22:00 +13°C° 0.1 mm 2 mps 758 mmHg 76%
    23:00 +11°C° 0.1 mm 3 mps 759 mmHg 79%
    Show more